AirNav   ATP
 
 361 users online  

9OI9 Riverside Methodist Hospital Heliport
Columbus, Ohio, USA

GOING TO COLUMBUS?


FAA INFORMATION EFFECTIVE 12 OCTOBER 2017

Location

FAA Identifier: 9OI9
Lat/Long: 40-01-52.7000N / 083-02-10.1000W
40-01.878333N / 083-02.168333W
40.0313056 / -83.0361389
(estimated)
Elevation: 766 ft. / 233 m (estimated)
Variation: 06W (2015)
From city: 5 miles NW of COLUMBUS, OH
Time zone: UTC -4 (UTC -5 during Standard Time)
Zip code: 43214

Heliport Operations

Heliport use: Private use, MEDICAL USE.
Activation date: 12/1983
Control tower: no
ARTCC: INDIANAPOLIS CENTER
FSS: DAYTON FLIGHT SERVICE STATION
NOTAMs facility: FDC (NOTAM-D service not available)
Attendance: CONTINUOUS
Wind indicator: yes
Segmented circle: no

Heliport Communications

HOSIG DP: 125.95
WX ASOS at OSU (3 nm NW): PHONE 614-451-2465
WX ASOS at CMH (7 nm E): 124.6 (614-338-4083)
WX AWOS-3 at TZR (9 nm SW): 135.925 (614-878-1722)
WX AWOS-3 at LCK (14 nm S): 132.750 (614-492-2441)
WX AWOS-3 at DLZ (15 nm N): 119.025 (740-203-1878)
WX AWOS-3 at MRT (19 nm NW): 119.275 (937-644-2967)

Nearby radio navigation aids

VOR radial/distance  VOR name  Freq  Var
APEr257/21.8APPLETON VORTAC116.7006W
XUBr360/(30.4)YELLOW BUD VOR112.5005W
BUDr183/(35.1)BUCKEYE VOR109.8005W
SGHr077/39.0SPRINGFIELD VOR/DME113.2004W

 
NDB name  Hdg/Dist  Freq  Var  ID
FULER114/7.951505WOS --- ...
PICKL321/12.937607WLC .-.. -.-.
BOUTN036/14.923005WBU -... ..-
NEWARK277/26.352406WHEH .... . ....
COURT HOUSE038/30.641406WCSS -.-. ... ...
CLARK COUNTY079/35.534104WCCJ -.-. -.-. .---
RUSHSYLVANIA137/38.732605WRUV .-. ..- ...-

Heliport Services

Runway Information

Helipad H1

Dimensions: 50 x 50 ft. / 15 x 15 m
Surface: asphalt
Latitude: 40-10.878333N
Longitude: 083-02.168333W
Elevation: 766.0 ft.
Traffic pattern: leftleft

Heliport Ownership and Management from official FAA records

Ownership: Privately-owned
Owner: RIVERSIDE METHODIST HOSPITAL
3535 OLENTANGY RIVER ROAD
COLUMBUS, OH 43214
Phone 614-566-4400
Manager: BRIAN SAUL
3535 OLENTANGY RIVER ROAD
COLUMBUS, OH 43214
Phone 614-566-4400
FOR EMGCY DEPT SVC CALL 614-566-5321. FOR PROTECTIVE SVC CALL 614-566-4400/8000.

Additional Remarks

A1010-1 LIQUID 02 STORAGE TANK ADJ TO & NNE OF HELI.
LIQUID OXYGEN TANK NE OF PAD.

Instrument Procedures

There are no published instrument procedures at 9OI9.

Some nearby airports with instrument procedures:

KOSU - Ohio State University Airport (3 nm NW)
KCMH - John Glenn Columbus International Airport (7 nm E)
KTZR - Bolton Field Airport (9 nm SW)
KLCK - Rickenbacker International Airport (14 nm S)
KDLZ - Delaware Municipal Airport - Jim Moore Field (15 nm N)
KMRT - Union County Airport (19 nm NW)
 
Loc | Ops | Rwys | IFR | FBO | Links
Com | Nav | Svcs | Stats | Notes


 
Area around 9OI9 (Riverside Methodist Hospital Heliport)
 
Road maps at: MapQuest Bing Google
 
Aerial photo
No photo
 
Sectional chart

 
Airport distance calculator
Flying to Riverside Methodist Hospital Heliport? Find the distance to fly.

From to 9OI9

Sunrise and sunset
Times for 21-Oct-2017
 Local
(UTC-4)
 Zulu
(UTC)
Morning civil twilight07:2311:23
Sunrise07:5011:50
Sunset18:4422:44
Evening civil twilight19:1123:11

Current date and time
Zulu (UTC)  21-Oct-2017 10:19:06
Local (UTC-4)  21-Oct-2017 06:19:06
 
METAR
KOSU 
4nm NW 
210953Z AUTO 00000KT 10SM CLR 09/07 A3023 RMK AO2 SLP234 T00940072
KCMH 
7nm E 
210951Z 00000KT 10SM FEW250 09/07 A3023 RMK AO2 SLP233 T00890072
KTZR 
10nm SW 
210955Z AUTO 00000KT 10SM CLR 08/07 A3023 RMK AO2 T00770071
KLCK 
14nm SE 
210955Z AUTO 00000KT 10SM CLR 08/07 A3023 RMK AO2 T00750069 PWINO
KDLZ 
15nm N 
210956Z AUTO 00000KT 10SM CLR 10/06 A3023 RMK AO2
KMRT 
19nm NW 
210953Z AUTO 00000KT 10SM CLR 08/07 A3022 RMK AO2 T00820072
TAF
KCMH 
7nm E 
210530Z 2106/2206 13004KT P6SM SCT250 FM211400 18009KT P6SM BKN250 FM220000 16004KT P6SM SCT120 BKN250
KLCK 
14nm SE 
210530Z 2106/2206 00000KT P6SM SCT250 FM211400 17009KT P6SM BKN250 FM220000 16004KT P6SM SCT120 BKN250
NOTAMs
Click for the latest NOTAMs
NOTAMs are issued by the DoD/FAA and will open in a separate window not controlled by AirNav.

 

 
 

Would you like to see your business listed on this page?

 If your business provides an interesting product or service to pilots, flight crews, aircraft, or users of the Riverside Methodist Hospital Heliport, you should consider listing it here.  To start the listing process, click on the button below
 
Add a business
 

Other Pages about Riverside Methodist Hospital Heliport

Update a link
 
Copyright © AirNav, LLC. All rights reserved. Privacy Policy  Contact